Flag for Germany Weather past 2 weeks in Völklingen, Saarland, Germany

Now
55 °F

Sunny.


Feels Like: 52 °F
Forecast: 41 / 62 °F
Wind: 12 mph from Northeast

Location: Saarbruecken / Ensheim

Current Time: Apr 19, 2015 at 9:07:22 PM

Latest Report: Apr 19, 2015 at 8:20 PM


Visibility: 10 mi

Pressure: 30.09 "Hg

Humidity: 33%

Dew point: 27 °F

Location of VölklingenLocation

Historic Weather in Völklingen — Graph

°F

Völklingen temperature yesterday

Maximum temperature yesterday: 55 °F (at 4:20 PM)
Minimum temperature yesterday: 39 °F (at 5:50 AM)
Average temperature yesterday: 47 °F

Past Weeks' High & Low Weather Summary

 TemperatureHumidityPressure
High75 °F (Apr 15, 2:50 PM)100% (Apr 12, 7:20 AM)30.63 "Hg (Apr 12, 7:20 AM)
Low28 °F (Apr 6, 5:20 AM)17% (Apr 10, 4:50 PM)29.86 "Hg (Apr 17, 4:50 AM)
Average51 °F56%30.24 "Hg
* Reported Apr 4 7:20 PM — Apr 19 7:50 PM, Völklingen, Weather by CustomWeather, © 2015

Note: Actual official high and low records may vary slightly from our data, if they occured in-between our weather recording intervals... More about our weather records

Advertising

Völklingen weather history for previous 24 hours

 ConditionsComfort  
Time TempWeatherWind HumidityBarometerVisibility
7:50 PM
Sun, Apr 19
57 °FPassing clouds.7 mph29%30.09 "HgN/A
7:20 PM59 °FPassing clouds.10 mph25%30.07 "HgN/A
6:50 PM61 °FPassing clouds.13 mph25%30.07 "HgN/A
6:20 PM61 °FSunny.14 mph25%30.07 "Hg10 mi
5:50 PM61 °FPassing clouds.13 mph23%30.07 "HgN/A
5:20 PM63 °FPassing clouds.14 mph22%30.04 "HgN/A
4:50 PM63 °FPassing clouds.12 mph24%30.04 "HgN/A
4:20 PM61 °FPassing clouds.14 mph22%30.07 "HgN/A
3:50 PM61 °FPassing clouds.13 mph23%30.07 "HgN/A
3:20 PM61 °FPassing clouds.16 mph23%30.07 "HgN/A
2:50 PM59 °FPassing clouds.13 mph25%30.07 "HgN/A
2:20 PM59 °FPassing clouds.13 mph27%30.07 "HgN/A
1:50 PM59 °FPassing clouds.14 mph27%30.07 "HgN/A
1:20 PM57 °FPassing clouds.12 mph29%30.09 "HgN/A
12:50 PM55 °FPassing clouds.13 mph31%30.09 "HgN/A
12:20 PM55 °FPassing clouds.14 mph33%30.09 "HgN/A
11:50 AM54 °FSunny.17 mph33%30.09 "Hg10 mi
11:20 AM52 °FPassing clouds.14 mph38%30.09 "HgN/A
10:50 AM52 °FSunny.21 mph38%30.09 "Hg10 mi
10:20 AM50 °FPassing clouds.15 mph43%30.09 "HgN/A
9:50 AM48 °FPassing clouds.13 mph46%30.09 "HgN/A
9:20 AM46 °FPassing clouds.12 mph50%30.09 "HgN/A
8:50 AM45 °FPassing clouds.10 mph53%30.09 "HgN/A
8:20 AM43 °FPassing clouds.8 mph57%30.09 "HgN/A
7:50 AM39 °FChilly.6 mph65%30.09 "HgN/A
7:20 AM37 °FClear.8 mph65%30.09 "Hg10 mi
6:50 AM37 °FClear.9 mph65%30.09 "Hg10 mi
6:20 AM37 °FClear.9 mph65%30.09 "Hg10 mi
5:50 AM37 °FClear.6 mph65%30.09 "Hg10 mi
5:20 AM37 °FClear.7 mph65%30.09 "Hg10 mi
4:50 AM36 °FClear.7 mph70%30.12 "Hg10 mi
4:20 AM37 °FClear.7 mph65%30.12 "Hg10 mi
3:50 AM37 °FClear.7 mph65%30.12 "Hg10 mi
3:20 AM37 °FClear.8 mph65%30.15 "Hg10 mi
2:50 AM39 °FClear.7 mph61%30.15 "Hg10 mi
2:20 AM39 °FClear.7 mph61%30.18 "Hg10 mi
1:20 AM41 °FClear.7 mph61%30.18 "Hg10 mi
12:50 AM43 °FClear.7 mph53%30.18 "Hg10 mi
12:20 AM43 °FClear.6 mph53%30.18 "Hg10 mi
11:50 PM
Sat, Apr 18
41 °FClear.7 mph61%30.18 "Hg10 mi
11:20 PM41 °FClear.8 mph57%30.18 "Hg10 mi
10:50 PM43 °FClear.8 mph53%30.21 "Hg10 mi
10:20 PM45 °FPassing clouds.5 mph53%30.21 "HgN/A
9:50 PM46 °FClear.7 mph46%30.21 "Hg10 mi
9:20 PM46 °FSunny.8 mph46%30.21 "Hg10 mi
Weather by CustomWeather, © 2015

See weather overviewHow to use our weather pages